Location: Gergny
(49.9140°N, 3.9324°E)
Time: 23:37:42
(UTC+00:00)

Daily predictions for brighter satellites

Satellite Brightness Start Highest point End
(mag) Time Altitude Azimuth Time Altitude Azimuth Time Altitude Azimuth
NOSS 3-3 (C) 4.0 16:38:24 10° SSW 16:43:25 51° ESE 16:49:23 10° NE
Landsat 7 4.1 16:40:44 10° SE 16:45:09 44° ENE 16:49:35 10° N
Cosmos 724 4.5 16:39:09 10° SSW 16:45:22 76° SE 16:51:35 10° NE
Cosmos 2173 Rocket 4.3 16:40:56 10° SSE 16:46:52 47° E 16:52:45 10° NNE
Cosmos 2227 4.5 16:43:23 10° S 16:48:57 54° ESE 16:54:33 10° NE
Cosmos 1733 Rocket 3.0 16:44:42 10° S 16:48:59 66° E 16:53:16 10° NNE
Cosmos 2082 Rocket 4.1 16:50:18 10° N 16:51:48 11° NNE 16:53:17 10° NE
USA 281 4.3 16:47:31 10° E 16:52:33 24° NE 16:57:36 10° N
Cosmos 2227 Rocket 3.8 16:47:40 10° WSW 16:52:37 30° NW 16:57:36 10° NNE
Thor Agena Rocket 3.8 16:48:28 10° SSE 16:53:43 79° WSW 16:59:02 10° NNW
CZ-4C R/B 2.7 16:50:22 10° S 16:53:57 27° ESE 16:58:16 10° ENE
Cosmos 1153 Rocket 4.5 16:48:08 10° S 16:54:16 82° E 17:00:26 10° N
Cosmos 1452 Rocket 3.8 16:49:28 10° NNW 16:54:43 73° WSW 16:59:55 10° SSE
Cosmos 1992 Rocket 4.4 16:50:10 10° NNW 16:55:07 41° ENE 17:00:00 10° SE
Cosmos 2242 Rocket 4.0 16:52:37 10° NNW 16:57:05 71° W 17:01:34 10° S
Cosmos 1441 Rocket 4.3 16:55:44 10° NNE 16:58:07 18° ENE 17:00:29 10° ESE
Cosmos 468 4.5 16:54:18 10° SSW 16:59:28 74° ESE 17:04:42 10° NNE
AQUARIUS 4.3 16:55:56 10° SE 17:00:11 50° ENE 17:04:28 10° N
Meteor 1-11 4.2 16:54:32 10° N 17:00:21 69° ENE 17:06:00 10° SSE
Cosmos 1844 4.0 16:55:34 10° S 17:01:08 51° ESE 17:06:43 10° NE
Cosmos 1048 Rocket 4.3 16:56:55 10° SSW 17:01:59 69° WNW 17:07:06 10° NNE
Cosmos 1340 Rocket 2.8 17:07:54 10° S 17:11:39 53° E 17:15:26 10° NNE
Cosmos 44 4.5 17:08:42 10° WSW 17:12:57 36° NW 17:17:28 10° NNE
Cosmos 1674 Rocket 3.5 17:08:56 10° N 17:13:22 81° E 17:17:43 10° SSE
PSLV R/B 4.3 17:13:15 10° SE 17:16:45 28° ENE 17:20:15 10° N
Cosmos 2219 4.3 17:11:43 10° WSW 17:17:01 42° NW 17:22:22 10° NNE
Cosmos 2016 Rocket 4.2 17:11:47 10° SSE 17:17:43 48° E 17:23:45 10° NNE
CZ-2D R/B 2.8 17:14:50 10° S 17:18:00 79° WSW 17:21:11 10° NNW
Resurs 1-3 4.3 17:19:53 10° SE 17:23:41 31° ENE 17:27:30 10° N
Cosmos 614 Rocket 4.0 17:18:33 10° SSW 17:23:45 85° ESE 17:28:59 10° NNE
Helios 1A Rocket 3.5 17:23:44 18° ENE 17:25:11 24° E 17:27:59 10° SSE
IRS-P3 4.1 17:20:59 10° SSE 17:26:19 86° ENE 17:31:42 10° NNW
SJ-6F 4.3 17:26:11 10° SSE 17:30:07 90° WSW 17:34:04 10° NNW
MOS 1 Rocket 2.9 17:29:08 10° SSE 17:33:21 70° ENE 17:37:39 10° N
BREEZE M DEB (TANK) 4.4 17:11:38 10° WSW 17:33:32 80° SSE 17:37:25 20° E
Cosmos 1025 Rocket 3.0 17:29:57 10° N 17:34:20 86° W 17:38:39 10° S
Cosmos 2061 Rocket 4.3 17:29:59 10° SSE 17:35:57 44° E 17:41:52 10° NNE
YAOGAN 1 2.8 17:32:43 10° SE 17:36:45 44° ENE 17:40:49 10° N
Cosmos 921 Rocket 3.5 17:32:51 10° SSE 17:36:47 37° ESE 17:39:40 17° NE
Cosmos 2263 Rocket 4.0 17:34:50 10° W 17:39:23 25° NW 17:43:59 10° NNE
Cosmos 2100 Rocket 4.2 17:34:26 10° SSW 17:40:39 74° W 17:46:51 10° N
IRAS Rocket 4.2 17:35:49 10° SSE 17:41:21 68° ENE 17:46:53 10° NNW
SPOT 1/Viking Rocket 3.5 17:37:27 10° SSE 17:42:34 69° ENE 17:47:43 10° N
CZ-4 R/B 4.2 17:40:42 10° SSE 17:44:40 81° ENE 17:48:41 10° NNW
ATLAS CENTAUR R/B 2.1 17:42:00 10° S 17:44:48 25° ESE 17:44:48 25° ESE
SL-19 R/B 4.1 17:39:58 10° SSE 17:45:11 60° ENE 17:50:19 10° N
ARIANE 5 R/B 3.6 17:40:59 10° S 17:45:47 47° W 17:50:37 10° NNW
Cosmos 1844 Rocket 2.9 17:40:31 10° SW 17:46:04 73° WNW 17:51:41 10° NNE
ARIANE 6 FM1 Upper Stage 2.4 17:46:11 10° SW 17:50:11 84° SE 17:52:12 28° NE
Cosmos 1607 4.5 17:44:14 10° WSW 17:50:16 56° NW 17:56:00 12° NE
Cosmos 1833 Rocket 2.8 17:48:10 10° NNW 17:53:41 51° NE 17:57:24 20° ESE
Cosmos 1140 Rocket 4.3 17:52:35 10° SSE 17:56:57 28° E 17:56:57 28° E
Cosmos 1782 Rocket 3.6 17:52:41 10° S 17:57:00 55° E 18:01:21 10° NNE
CZ-2D R/B 3.4 17:53:15 10° SSE 17:57:16 85° WSW 18:01:26 10° NNW
Geosat 4.1 17:53:30 10° SSE 17:58:29 75° WSW 18:03:31 10° NNW
SKYMED 2 3.4 17:56:58 10° NNE 18:01:21 79° ESE 18:05:41 10° S
Cosmos 1867 3.5 17:58:18 10° SW 18:03:45 88° NW 18:07:26 22° NE
NOSS 3-4 (A) 4.1 17:58:41 10° NW 18:05:24 72° SW 18:13:18 10° SSE
NOSS 3-4 (C) 4.0 17:58:46 10° NW 18:05:29 73° SW 18:13:22 10° SSE
COSMO-SKYMED 1 2.3 18:02:06 13° NNE 18:05:46 63° ESE 18:09:51 10° S
Cosmos 1606 4.2 18:03:58 10° SW 18:06:19 25° WNW 18:08:41 10° NNW
SL-16 R/B 4.4 18:03:43 10° N 18:08:55 28° NW 18:14:05 10° WSW
Cosmos 2344 4.4 18:03:34 10° NW 18:10:19 36° NNE 18:14:01 25° ENE
ATLAS 5 CENTAUR R/B 2.1 18:06:55 10° NNW 18:10:47 39° NE 18:11:09 39° NE
Cosmos 1725 Rocket 4.3 18:06:11 10° SSW 18:12:24 70° WNW 18:18:42 10° N
Cosmos 1908 Rocket 4.2 18:08:34 10° SSW 18:12:53 56° WNW 18:17:17 10° N
Cosmos 540 Rocket 4.3 18:08:50 10° N 18:12:57 30° NE 18:12:57 30° NE
Tiangong 0.1 18:13:12 10° SW 18:15:27 18° S 18:15:32 18° S
Cosmos 1975 Rocket 2.8 18:12:27 10° N 18:16:47 74° E 18:20:47 12° SSE
SL-4 R/B 1.5 18:14:16 10° WNW 18:17:46 77° SSW 18:17:58 73° SSE
Cosmos 1300 Rocket 3.5 18:13:56 10° S 18:18:20 85° W 18:22:46 10° N
YAOGAN 3 4.3 18:19:45 44° SE 18:20:59 69° ENE 18:25:11 10° N
Cosmos 2233 Rocket 4.1 18:17:51 10° SSW 18:24:08 81° W 18:30:30 10° N
Resurs 01 Rocket 1.8 18:28:31 52° NE 18:28:31 52° NE 18:32:15 10° N
ATLAS 2AS CENTAUR R/B 4.0 18:23:42 10° NW 18:29:19 26° N 18:31:46 21° NE
BREEZE-M DEB (TANK) 3.0 18:26:59 10° SW 18:29:29 60° SSE 18:29:29 60° SSE
USA 281 3.1 18:31:57 24° SE 18:36:13 80° ENE 18:42:50 10° NNW
Cosmos 2082 Rocket 3.2 18:32:51 10° NNW 18:36:54 29° NNE 18:36:54 29° NNE
CARTOSAT-1 3.4 18:40:02 85° NW 18:40:02 85° NW 18:44:12 10° NNW
Cosmos 1023 Rocket 4.3 18:34:54 10° S 18:39:58 67° ESE 18:39:58 67° ESE
DNEPR-1 R/B 3.7 18:35:44 10° NW 18:40:07 78° SW 18:40:51 62° SSE
CZ-4C R/B 2.4 18:37:17 10° WSW 18:41:41 54° NW 18:43:42 35° NNE
NOAA 6 4.4 18:39:47 10° S 18:44:54 63° WSW 18:50:02 10° NNW
Cosmos 1269 Rocket 3.8 18:42:48 10° SSW 18:48:03 82° ESE 18:48:28 75° NE
BREEZE-M DEB (TANK) 4.4 19:06:37 10° SW 19:08:20 34° SW 19:08:20 34° SW
ATLAS CENTAUR R/B 3.8 19:16:39 10° WSW 19:17:25 15° WSW 19:17:25 15° WSW
Cosmos 1763 Rocket 4.4 19:25:11 10° NNW 19:28:55 44° NW 19:28:55 44° NW
Cosmos 1833 Rocket 4.2 19:32:26 10° NW 19:37:23 32° WSW 19:39:09 26° SW
Nadezhda 4 Rocket 4.3 19:31:58 10° NNW 19:37:45 66° WNW 19:37:45 66° WNW
SL-12 R/B(2) 4.2 19:37:18 10° SW 19:44:56 79° SSE 19:44:56 79° SSE
BREEZE-M DEB (TANK) 4.4 19:21:12 10° WSW 19:49:51 83° SSE 19:50:25 79° ESE
ATLAS 5 CENTAUR R/B 4.0 19:49:12 10° NW 19:50:42 21° WNW 19:50:42 21° WNW
Resurs 01 Rocket 4.4 20:05:57 16° WNW 20:05:57 16° WNW 20:07:40 10° NW
ATLAS 2AS CENTAUR R/B 4.1 20:15:34 10° NW 20:19:10 29° NNW 20:19:10 29° NNW
Cosmos 2082 Rocket 4.2 20:16:44 10° NW 20:18:44 22° NW 20:18:44 22° NW
Cosmos 2344 4.1 20:18:03 10° NW 20:24:02 60° NNW 20:24:02 60° NNW
